Regional Weather Roundup
Issued by NWS

Home | Current Version | Previous Version | Graphics & Text | Print | Product List | Glossary On
Versions: 1 2 3 4 5 6 7 8 9 10 11 12 13 14 15 16 17 18 19 20 21 22 23 24 25 26 27 28 29 30 31 32 33 34 35 36 37 38 39 40 41 42 43 44 45 46 47 48 49 50
000
ASUS43 KOAX 011710
RWRNE

WEATHER ROUNDUP FOR NEBRASKA
NATIONAL WEATHER SERVICE OMAHA NE
1200 PM CDT SUN MAY 01 2016

NOTES: SATELLITE DATA IS BEING USED TO AUGMENT CLOUD COVER ABOVE
       12000 FEET.
       "FAIR" INDICATES FEW OR NO CLOUDS BELOW 12,000 FEET WITH NO
       SIGNIFICANT WEATHER AND/OR OBSTRUCTIONS TO VISIBILITY.

  * THESE STATIONS DO NOT REPORT WEATHER SUCH AS RAIN...SNOW OR FOG.

NEZ001>004-019>022-054>056-011800-
NEBRASKA PANHANDLE

CITY           SKY/WX    TMP DP  RH WIND       PRES   REMARKS
SCOTTSBLUFF    CLOUDY    48  29  47 N14       30.33S
ALLIANCE       SUNNY     38  31  76 NW12      30.30R WCI  30
CHADRON        MOSUNNY   51  30  44 NE17      30.32S
KIMBALL        CLOUDY    38  31  77 N12       30.32S WCI  30
SIDNEY         CLOUDY    38  32  79 N12       30.32R WCI  30
$$

NEZ057>060-069>072-079>082-011800-
SOUTHWEST NEBRASKA

CITY           SKY/WX    TMP DP  RH WIND       PRES   REMARKS
NORTH PLATTE   MOSUNNY   47  36  65 N18       30.25R
IMPERIAL       CLOUDY    47  33  58 N23G31    30.28R
LEXINGTON      CLOUDY    46  39  78 N16       30.20S
MCCOOK         CLOUDY    45  38  76 N9        30.24R
OGALLALA       SUNNY     48  34  59 N16       30.29R
$$

NEZ005>010-023>029-035>040-094-011800-
NORTH CENTRAL NEBRASKA

CITY           SKY/WX    TMP DP  RH WIND       PRES   REMARKS
VALENTINE      MOSUNNY   51  32  48 NE20G28   30.26S
AINSWORTH      SUNNY     50  33  52 N20G33    30.24R
BROKEN BOW     CLOUDY    47  39  74 N21       30.20R
O`NEILL        CLOUDY    45  39  79 N12       30.22R
ORD            CLOUDY    45  40  82 N22       30.19R
THEDFORD       MOSUNNY   47  37  69 N13       30.26R
$$

NEZ041-046>049-061>064-073>077-083>087-011800-
SOUTH CENTRAL NEBRASKA

CITY           SKY/WX    TMP DP  RH WIND       PRES   REMARKS
GRAND ISLAND   CLOUDY    45  40  82 N23G30    30.16R
AURORA         CLOUDY    47  44  91 N22G29    30.13S
HASTINGS       PTSUNNY   48  40  73 N24       30.13S
HEBRON         CLOUDY    46  41  83 N20       30.11R
HOLDREGE       CLOUDY    45  41  86 N16G24    30.17S
KEARNEY *      CLOUDY    46  37  71 N24       30.18R
YORK           LGT RAIN  45  41  87 N21G29    30.13R
$$

NEZ011>018-030>034-042>045-011800-
NORTHEAST NEBRASKA

CITY           SKY/WX    TMP DP  RH WIND       PRES   REMARKS
NORFOLK        LGT RAIN  44  40  85 N17       30.16R
ALBION         DRIZZLE   44  41  92 N16       30.17S
BLAIR          LGT RAIN  45  43  94 N16G22    30.09R
COLUMBUS *     CLOUDY    45  36  70 N21       30.15R
FREMONT        CLOUDY    44  43  98 N9        30.13R FOG
TEKAMAH        LGT RAIN  46  44  93 N15       30.12R
WAYNE          RAIN      44  41  91 N18G25    30.17R
$$

NEZ050>053-065>068-078-088>093-011800-
SOUTHEAST NEBRASKA

CITY           SKY/WX    TMP DP  RH WIND       PRES   REMARKS
LINCOLN        CLOUDY    47  43  86 N20       30.11R
OMAHA EPPLEY   LGT RAIN  47  44  90 N15       30.09R
BEATRICE       CLOUDY    46  43  91 N20       30.09R
FALLS CITY     CLOUDY    50  47  89 N13       30.03R
NEBRASKA CITY  DRIZZLE   46  46 100 N12       30.06R
PLATTSMOUTH    CLOUDY    46  45  97 N8        30.07R
$$

NEZ044-045-051>053-067-011800-
OMAHA AREA

CITY           SKY/WX    TMP DP  RH WIND       PRES   REMARKS
OMAHA EPPLEY   LGT RAIN  47  44  90 N15       30.09R
BLAIR          LGT RAIN  45  43  94 N16G22    30.09R
FREMONT        CLOUDY    44  43  98 N9        30.13R FOG
MILLARD        LGT RAIN  46  44  94 N9        30.09R
OFFUTT AFB     CLOUDY    46  46 100 N10       30.08R
PLATTSMOUTH    CLOUDY    46  45  97 N8        30.07R
WAHOO          LGT RAIN  46  43  91 N14G22    30.11R
$$




USA.gov is the U.S. government's official web portal to all federal, state and local government web resources and services.